Weather History for Jackson, MN

Change the Weather History Date:

Thursday, February 7, 2013

  Actual Average Record
Temperature  
Mean Temperature 30 °F -  
Max Temperature 35 °F 27 °F 50 °F (2002)
Min Temperature 24 °F 10 °F -9 °F (2003)
Degree Days  
Heating Degree Days 36    
Moisture  
Dew Point 23 °F    
Average Humidity 88    
Maximum Humidity 93    
Minimum Humidity 80    
Precipitation  
Precipitation 0.00 in - - ()
Sea Level Pressure  
Sea Level Pressure 30.07 in    
Wind  
Wind Speed 11 mph (NNW)    
Max Wind Speed 17 mph    
Max Gust Speed 24 mph    
Visibility 4 miles    
Events      
Averages and records for this station are not official NWS values.
T = Trace of Precipitation, MM = Missing Value Source: NWS Daily Summary

Daily Weather History Graph

Daily Weather History Graph

Search for Another Location

Airport:

Trip Planner

Search our weather history database for the weather conditions in past years. The results will help you decide how hot, cold, wet, or windy it might be!

Date:

Astronomy

Feb. 07, 2013 Rise Set
Actual Time 7:29 AM CST 5:39 PM CST
Civil Twilight 6:59 AM CST 6:09 PM CST
Nautical Twilight 6:25 AM CST 6:43 PM CST
Astronomical Twilight 5:51 AM CST 7:17 PM CST
Moon 5:12 AM CST (2/7) 3:02 PM CST (2/7)
Length of Visible Light 11h 10m
Length of Day
10h 10m
Waning Crescent, 9% of the Moon is Illuminated
Feb 7
Waning Crescent
Feb 10
New
Feb 17
First Quarter
Feb 25
Full
Mar 4
Last Quarter

Hourly Weather History & Observations

Time (CST) Temp. Windchill Dew Point Humidity Pressure Visibility Wind Dir Wind Speed Gust Speed Precip Events Conditions
12:33 AM 33.8 °F 28.6 °F 32.0 °F 93% 29.91 in 10.0 mi NW 5.8 mph - N/A   Scattered Clouds
12:53 AM 33.8 °F 26.4 °F 32.0 °F 93% 29.91 in 10.0 mi NW 9.2 mph - N/A   Scattered Clouds
1:12 AM 35.6 °F 28.0 °F 32.0 °F 87% 29.91 in 10.0 mi NNW 10.4 mph - N/A   Scattered Clouds
1:33 AM 33.8 °F 28.6 °F 32.0 °F 93% 29.92 in 7.0 mi North 5.8 mph - N/A   Scattered Clouds
1:53 AM 32.0 °F 23.6 °F 30.2 °F 93% 29.94 in 2.0 mi North 10.4 mph - N/A   Overcast
2:12 AM 32.0 °F 24.2 °F 30.2 °F 93% 29.95 in 2.0 mi NNW 9.2 mph - N/A   Overcast
2:33 AM 30.2 °F 20.2 °F 28.4 °F 93% 29.95 in 1.8 mi NNW 12.7 mph 17.3 mph N/A   Overcast
2:53 AM 30.2 °F 20.8 °F 28.4 °F 93% 29.95 in 1.8 mi NNW 11.5 mph 18.4 mph N/A   Overcast
3:13 AM 28.4 °F 18.0 °F 26.6 °F 93% 29.96 in 1.2 mi NNW 12.7 mph 16.1 mph N/A   Overcast
3:33 AM 28.4 °F 18.5 °F 26.6 °F 93% 29.96 in 1.2 mi NNW 11.5 mph - N/A   Overcast
3:53 AM 26.6 °F 16.8 °F 24.8 °F 93% 29.95 in 1.5 mi North 10.4 mph 16.1 mph N/A   Overcast
4:13 AM 26.6 °F 14.7 °F 23.0 °F 86% 29.95 in 1.5 mi North 15.0 mph - N/A   Overcast
4:33 AM 24.8 °F 14.6 °F 23.0 °F 93% 29.96 in 1.8 mi North 10.4 mph 18.4 mph N/A   Overcast
4:53 AM 24.8 °F 13.4 °F 21.2 °F 86% 29.96 in 1.5 mi North 12.7 mph 17.3 mph N/A   Overcast
5:13 AM 24.8 °F 13.4 °F 21.2 °F 86% 29.97 in 1.5 mi North 12.7 mph - N/A   Overcast
5:33 AM 24.8 °F 14.6 °F 21.2 °F 86% 29.98 in 2.0 mi NNW 10.4 mph - N/A   Overcast
5:53 AM 24.8 °F 14.0 °F 21.2 °F 86% 29.98 in 2.0 mi NNW 11.5 mph 18.4 mph N/A   Overcast
6:13 AM 24.8 °F 14.0 °F 21.2 °F 86% 29.98 in 2.0 mi NNW 11.5 mph 17.3 mph N/A   Overcast
6:33 AM 24.8 °F 13.4 °F 21.2 °F 86% 29.97 in 1.8 mi North 12.7 mph 17.3 mph N/A   Overcast
6:53 AM 24.8 °F 14.6 °F 21.2 °F 86% 29.98 in 1.8 mi North 10.4 mph - N/A   Overcast
7:12 AM 24.8 °F 14.0 °F 21.2 °F 86% 29.99 in 1.8 mi North 11.5 mph 17.3 mph N/A   Overcast
7:33 AM 24.8 °F 14.6 °F 21.2 °F 86% 30.00 in 1.8 mi North 10.4 mph 16.1 mph N/A   Overcast
7:53 AM 24.8 °F 14.0 °F 21.2 °F 86% 30.02 in 1.0 mi North 11.5 mph 17.3 mph N/A   Overcast
8:12 AM 24.8 °F 14.6 °F 23.0 °F 93% 30.02 in 1.2 mi North 10.4 mph - N/A   Overcast
8:33 AM 24.8 °F 14.6 °F 21.2 °F 86% 30.03 in 1.0 mi North 10.4 mph 16.1 mph N/A   Overcast
8:53 AM 24.8 °F 13.4 °F 21.2 °F 86% 30.04 in 1.2 mi North 12.7 mph - N/A   Overcast
9:13 AM 24.8 °F 14.6 °F 23.0 °F 93% 30.05 in 1.2 mi North 10.4 mph - N/A   Overcast
9:33 AM 24.8 °F 15.3 °F 23.0 °F 93% 30.06 in 1.2 mi North 9.2 mph 18.4 mph N/A   Overcast
9:53 AM 24.8 °F 13.4 °F 23.0 °F 93% 30.06 in 1.2 mi NNW 12.7 mph 21.9 mph N/A   Overcast
10:13 AM 24.8 °F 13.4 °F 23.0 °F 93% 30.06 in 1.2 mi NNW 12.7 mph 19.6 mph N/A   Overcast
10:33 AM 24.8 °F 13.4 °F 23.0 °F 93% 30.06 in 1.5 mi NNW 12.7 mph 19.6 mph N/A   Overcast
10:53 AM 24.8 °F 13.4 °F 23.0 °F 93% 30.07 in 1.8 mi NNW 12.7 mph 24.2 mph N/A   Overcast
11:13 AM 24.8 °F 14.0 °F 23.0 °F 93% 30.08 in 1.8 mi NNW 11.5 mph 23.0 mph N/A   Overcast
11:33 AM 24.8 °F 11.9 °F 23.0 °F 93% 30.09 in 1.8 mi NNW 16.1 mph 23.0 mph N/A   Overcast
11:53 AM 24.8 °F 12.9 °F 23.0 °F 93% 30.08 in 1.8 mi NNW 13.8 mph 21.9 mph N/A   Overcast
12:13 PM 24.8 °F 12.4 °F 23.0 °F 93% 30.08 in 1.8 mi NNW 15.0 mph 23.0 mph N/A   Overcast
12:33 PM 26.6 °F 13.8 °F 23.0 °F 86% 30.07 in 1.8 mi NNW 17.3 mph 21.9 mph N/A   Overcast
12:53 PM 26.6 °F 14.3 °F 23.0 °F 86% 30.07 in 1.5 mi NNW 16.1 mph 21.9 mph N/A   Overcast
1:12 PM 26.6 °F 14.3 °F 23.0 °F 86% 30.07 in 1.8 mi NNW 16.1 mph 23.0 mph N/A   Overcast
1:33 PM 26.6 °F 15.7 °F 23.0 °F 86% 30.07 in 1.8 mi NNW 12.7 mph 23.0 mph N/A   Overcast
1:52 PM 26.6 °F 16.2 °F 23.0 °F 86% 30.07 in 1.8 mi NNW 11.5 mph 20.7 mph N/A   Overcast
2:13 PM 26.6 °F 14.3 °F 23.0 °F 86% 30.07 in 2.0 mi NNW 16.1 mph 24.2 mph N/A   Overcast
2:33 PM 26.6 °F 16.8 °F 23.0 °F 86% 30.07 in 2.0 mi North 10.4 mph 20.7 mph N/A   Overcast
2:53 PM 26.6 °F 15.2 °F 23.0 °F 86% 30.09 in 2.0 mi NNW 13.8 mph 20.7 mph N/A   Overcast
3:13 PM 26.6 °F 16.8 °F 23.0 °F 86% 30.09 in 2.0 mi NNW 10.4 mph 18.4 mph N/A   Overcast
3:32 PM 26.6 °F 16.8 °F 23.0 °F 86% 30.10 in 2.5 mi North 10.4 mph 17.3 mph N/A   Overcast
3:53 PM 26.6 °F 16.8 °F 23.0 °F 86% 30.10 in 3.0 mi NNW 10.4 mph 16.1 mph N/A   Overcast
4:13 PM 26.6 °F 18.2 °F 24.8 °F 93% 30.11 in 4.0 mi North 8.1 mph 20.7 mph N/A   Overcast
4:33 PM 26.6 °F 16.2 °F 24.8 °F 93% 30.12 in 4.0 mi North 11.5 mph - N/A   Overcast
4:52 PM 26.6 °F 16.8 °F 24.8 °F 93% 30.12 in 5.0 mi North 10.4 mph 16.1 mph N/A   Overcast
5:13 PM 26.6 °F 18.2 °F 23.0 °F 86% 30.13 in 4.0 mi North 8.1 mph 19.6 mph N/A   Overcast
5:32 PM 26.6 °F 16.8 °F 23.0 °F 86% 30.14 in 5.0 mi NNW 10.4 mph 18.4 mph N/A   Overcast
5:53 PM 26.6 °F 18.2 °F 23.0 °F 86% 30.15 in 7.0 mi NNW 8.1 mph - N/A   Overcast
6:13 PM 26.6 °F 17.5 °F 23.0 °F 86% 30.16 in 7.0 mi North 9.2 mph - N/A   Overcast
6:32 PM 26.6 °F 16.8 °F 23.0 °F 86% 30.16 in 10.0 mi North 10.4 mph - N/A   Overcast
6:53 PM 26.6 °F 15.2 °F 23.0 °F 86% 30.17 in 7.0 mi North 13.8 mph 18.4 mph N/A   Overcast
7:13 PM 26.6 °F 15.7 °F 23.0 °F 86% 30.18 in 10.0 mi North 12.7 mph 17.3 mph N/A   Overcast
7:32 PM 26.6 °F 15.2 °F 23.0 °F 86% 30.19 in 10.0 mi North 13.8 mph 17.3 mph N/A   Overcast
7:53 PM 26.6 °F 14.7 °F 23.0 °F 86% 30.19 in 10.0 mi North 15.0 mph 19.6 mph N/A   Overcast
8:13 PM 24.8 °F 11.5 °F 21.2 °F 86% 30.20 in 7.0 mi NNE 17.3 mph 20.7 mph N/A   Overcast
8:32 PM 24.8 °F 15.3 °F 21.2 °F 86% 30.20 in 7.0 mi North 9.2 mph - N/A   Overcast
8:53 PM 24.8 °F 16.1 °F 21.2 °F 86% 30.21 in 7.0 mi North 8.1 mph - N/A   Overcast
9:13 PM 24.8 °F 14.6 °F 21.2 °F 86% 30.21 in 10.0 mi North 10.4 mph 17.3 mph N/A   Overcast
9:32 PM 24.8 °F 12.9 °F 21.2 °F 86% 30.22 in 10.0 mi NNE 13.8 mph 20.7 mph N/A   Overcast
9:53 PM 24.8 °F 12.9 °F 21.2 °F 86% 30.21 in 10.0 mi NNE 13.8 mph - N/A   Overcast
10:13 PM 24.8 °F 14.0 °F 21.2 °F 86% 30.21 in 10.0 mi North 11.5 mph 18.4 mph N/A   Overcast
10:33 PM 24.8 °F 13.4 °F 21.2 °F 86% 30.21 in 10.0 mi NNE 12.7 mph - N/A   Overcast
10:53 PM 24.8 °F 14.6 °F 19.4 °F 80% 30.21 in 10.0 mi North 10.4 mph 16.1 mph N/A   Overcast
11:13 PM 24.8 °F 17.9 °F 19.4 °F 80% 30.22 in 10.0 mi North 5.8 mph - N/A   Overcast
11:32 PM 24.8 °F 19.1 °F 19.4 °F 80% 30.22 in 10.0 mi North 4.6 mph - N/A   Overcast
11:53 PM 24.8 °F 17.9 °F 19.4 °F 80% 30.23 in 10.0 mi North 5.8 mph - N/A   Overcast